Date String (YYYY-MM-DD hh:mm:ss) UTC,Instrument flags,absolute air pressure of the measurement (hPa),sample flow rate (lpm),inlet stack bypass flow (lpm),air temperature of the measurement (°C),ambient temperature measured by the external sensor (°C),aerosol sample conditioner tube jacket temperature (°C),OPC LED temperature (°C),internal box temperature (°C),relative humidity of the measurement (%),span deviation,mass concentration of particles derived from Lorenz-Mie calculation of OPC scattering (μg/m³),mass concentration of particles derived from Lorenz-Mie calculation of OPC scattering (μg/m³),mass concentration of particles derived from Lorenz-Mie calculation of OPC scattering (μg/m³)
DateTimeUTC,F1_M11,P_M11,Q1_M11,Q2_M11,T1_M11,T2_M11,T3_M11,T4_M11,T5_M11,U1_M11,ZSPAN_M11,X0_M11,X2_M11,X1_M11
2024-01-22 09:00:00,SystemResetWarning,0823.3,5.00,000.00,021.3,020.5,000.0,029.7,022.6,16.3,0003.5,0008.99,0005.24,0005.03
2024-01-22 09:01:00,SystemResetWarning,0822.9,5.00,000.00,021.3,020.5,000.0,029.7,022.7,16.3,0003.6,0009.42,0005.25,0005.04
2024-01-22 09:02:00,SystemResetWarning,0822.7,4.99,000.00,021.3,020.5,000.0,029.7,022.6,16.3,0003.8,0009.63,0005.29,0005.06
2024-01-22 09:03:00,SystemResetWarning,0822.7,4.99,000.00,021.3,020.5,000.0,029.7,022.6,16.3,0003.8,0009.69,0005.32,0005.08
2024-01-22 09:04:00,SystemResetWarning,0822.8,5.00,000.00,021.3,020.5,000.0,029.7,022.6,16.3,0004.0,0009.70,0005.33,0005.09
2024-01-22 09:05:00,SystemResetWarning,0822.8,5.00,000.00,021.3,020.5,000.0,029.7,022.6,16.3,0004.1,0009.67,0005.32,0005.08
2024-01-22 09:06:00,SystemResetWarning,0822.8,5.01,000.00,021.3,020.5,000.0,029.7,022.6,16.3,0004.2,0009.59,0005.29,0005.07
2024-01-22 09:07:00,SystemResetWarning,0822.8,5.01,000.00,021.3,020.5,000.0,029.7,022.6,16.3,0004.4,0009.59,0005.28,0005.07
2024-01-22 09:08:00,SystemResetWarning,0822.8,5.00,000.00,021.3,020.5,000.0,029.7,022.6,16.3,0004.6,0009.09,0005.29,0005.07
2024-01-22 09:09:00,SystemResetWarning,0822.8,5.00,000.00,021.3,020.4,000.0,029.7,022.6,16.3,0004.7,0009.17,0005.31,0005.07
2024-01-22 09:10:00,SystemResetWarning,0822.8,4.99,000.00,021.3,020.4,000.0,029.7,022.6,16.3,0004.5,0009.15,0005.29,0005.05
2024-01-22 09:11:00,SystemResetWarning,0822.8,5.00,000.00,021.3,020.4,000.0,029.7,022.6,16.3,0004.8,0009.08,0005.23,0004.99
2024-01-22 09:12:00,SystemResetWarning,0822.7,5.00,000.00,021.3,020.4,000.0,029.7,022.6,16.2,0004.9,0008.69,0005.17,0004.92
2024-01-22 09:13:00,SystemResetWarning,0822.8,5.00,000.00,021.3,020.4,000.0,029.7,022.6,16.2,0004.7,0008.22,0005.08,0004.85
2024-01-22 09:14:00,SystemResetWarning,0822.8,5.00,000.00,021.3,020.4,000.0,029.7,022.5,16.2,0004.7,0008.14,0005.00,0004.78
2024-01-22 09:15:00,SystemResetWarning,0822.8,5.01,000.00,021.3,020.4,000.0,029.6,022.6,16.2,0004.6,0008.12,0004.96,0004.72
2024-01-22 09:16:00,SystemResetWarning,0822.7,5.01,000.00,021.2,020.4,000.0,029.6,022.5,16.2,0004.5,0008.15,0004.93,0004.67
2024-01-22 09:17:00,SystemResetWarning,0822.7,4.99,000.00,021.2,020.4,000.0,029.6,022.6,16.2,0004.6,0008.07,0004.86,0004.61
2024-01-22 09:18:00,SystemResetWarning,0822.7,4.99,000.00,021.3,020.4,000.0,029.6,022.6,16.2,0004.6,0007.93,0004.81,0004.56
2024-01-22 09:19:00,SystemResetWarning,0822.8,5.00,000.00,021.3,020.5,000.0,029.6,022.6,16.2,0004.4,0007.68,0004.75,0004.49
2024-01-22 09:20:00,SystemResetWarning,0822.9,5.00,000.00,021.3,020.4,000.0,029.6,022.5,16.3,0004.3,0007.51,0004.66,0004.43
2024-01-22 09:21:00,SystemResetWarning,0823.2,5.00,000.00,021.2,020.4,000.0,029.6,022.5,16.3,0004.7,0007.50,0004.60,0004.37
2024-01-22 09:22:00,SystemResetWarning,0823.2,5.00,000.00,021.2,020.4,000.0,029.6,022.5,16.4,0004.8,0007.49,0004.58,0004.35
2024-01-22 09:23:00,SystemResetWarning,0823.0,5.00,000.00,021.2,020.4,000.0,029.6,022.5,16.5,0004.6,0007.42,0004.54,0004.33
2024-01-22 09:24:00,SystemResetWarning,0822.9,5.00,000.00,021.2,020.4,000.0,029.6,022.5,16.5,0004.9,0007.43,0004.54,0004.31
2024-01-22 09:25:00,SystemResetWarning,0822.9,4.99,000.00,021.2,020.3,000.0,029.6,022.5,16.5,0005.0,0007.36,0004.51,0004.29
2024-01-22 09:26:00,SystemResetWarning,0822.9,4.99,000.00,021.2,020.3,000.0,029.6,022.4,16.6,0005.1,0007.20,0004.47,0004.27
2024-01-22 09:27:00,SystemResetWarning,0822.9,5.00,000.00,021.2,020.3,000.0,029.6,022.4,16.6,0005.1,0007.01,0004.44,0004.24
2024-01-22 09:28:00,SystemResetWarning,0823.0,5.01,000.00,021.2,020.3,000.0,029.6,022.4,16.6,0004.9,0007.00,0004.44,0004.24
2024-01-22 09:29:00,SystemResetWarning,0823.2,5.00,000.00,021.2,020.3,000.0,029.6,022.4,16.6,0004.7,0006.92,0004.41,0004.22
2024-01-22 09:30:00,SystemResetWarning,0823.0,5.00,000.00,021.1,020.2,000.0,029.6,022.4,16.6,0004.1,0006.87,0004.39,0004.21
2024-01-22 09:31:00,SystemResetWarning,0823.2,5.00,000.00,021.1,020.2,000.0,029.6,022.4,16.7,0004.1,0006.90,0004.38,0004.22
2024-01-22 09:32:00,SystemResetWarning,0823.2,5.00,000.00,021.1,020.3,000.0,029.6,022.4,16.7,0003.5,0006.81,0004.39,0004.22
2024-01-22 09:33:00,SystemResetWarning,0823.3,5.00,000.00,021.1,020.3,000.0,029.6,022.4,16.7,0003.3,0006.67,0004.37,0004.21
2024-01-22 09:34:00,SystemResetWarning,0823.0,5.00,000.00,021.1,020.3,000.0,029.5,022.4,16.7,0003.3,0006.69,0004.36,0004.20
2024-01-22 09:35:00,SystemResetWarning,0823.0,5.00,000.00,021.1,020.3,000.0,029.5,022.4,16.7,0003.1,0006.63,0004.34,0004.18
2024-01-22 09:36:00,SystemResetWarning,0823.1,5.00,000.00,021.1,020.3,000.0,029.5,022.4,16.7,0003.3,0006.66,0004.34,0004.17
2024-01-22 09:37:00,SystemResetWarning,0823.4,4.99,000.00,021.1,020.3,000.0,029.5,022.4,16.7,0003.6,0006.65,0004.35,0004.17
2024-01-22 09:38:00,SystemResetWarning,0823.3,4.99,000.00,021.1,020.3,000.0,029.5,022.4,16.7,0003.6,0006.69,0004.37,0004.18
2024-01-22 09:39:00,SystemResetWarning,0823.2,4.99,000.00,021.1,020.3,000.0,029.5,022.4,16.7,0003.8,0006.69,0004.36,0004.16
2024-01-22 09:40:00,SystemResetWarning,0823.1,5.00,000.00,021.1,020.3,000.0,029.5,022.4,16.7,0004.0,0006.58,0004.33,0004.15
2024-01-22 09:41:00,SystemResetWarning,0823.4,5.00,000.00,021.1,020.3,000.0,029.5,022.4,16.7,0004.3,0006.63,0004.34,0004.14
2024-01-22 09:42:00,SystemResetWarning,0822.9,5.01,000.00,021.1,020.2,000.0,029.5,022.4,16.7,0004.3,0006.71,0004.36,0004.15
2024-01-22 09:43:00,SystemResetWarning,0822.8,5.01,000.00,021.1,020.2,000.0,029.5,022.3,16.8,0004.7,0006.62,0004.34,0004.13
2024-01-22 09:44:00,SystemResetWarning,0822.9,5.01,000.00,021.1,020.2,000.0,029.5,022.3,16.8,0004.9,0006.64,0004.36,0004.15
2024-01-22 09:45:00,SystemResetWarning,0822.9,5.00,000.00,021.1,020.2,000.0,029.5,022.3,16.8,0005.0,0007.15,0004.47,0004.25
2024-01-22 09:46:00,SystemResetWarning,0822.8,5.00,000.00,021.1,020.1,000.0,029.5,022.3,16.8,0005.1,0007.48,0004.60,0004.35
2024-01-22 09:47:00,SystemResetWarning,0823.3,5.00,000.00,021.1,020.1,000.0,029.5,022.3,16.8,0005.1,0007.59,0004.66,0004.43
2024-01-22 09:48:00,SystemResetWarning,0822.9,4.99,000.00,021.1,020.1,000.0,029.5,022.3,16.8,0005.0,0007.72,0004.72,0004.49
2024-01-22 09:49:00,SystemResetWarning,0822.7,5.00,000.00,021.0,020.1,000.0,029.5,022.2,16.9,0004.8,0007.86,0004.80,0004.57
2024-01-22 09:50:00,SystemResetWarning,0823.0,4.99,000.00,021.0,020.1,000.0,029.5,022.2,17.0,0004.8,0008.00,0004.89,0004.67
2024-01-22 09:51:00,SystemResetWarning,0823.0,5.00,000.00,021.0,020.0,000.0,029.5,022.2,17.0,0004.8,0008.16,0005.01,0004.79
2024-01-22 09:52:00,SystemResetWarning,0823.4,4.99,000.00,021.0,020.0,000.0,029.5,022.2,17.1,0004.8,0008.29,0005.09,0004.86
2024-01-22 09:53:00,SystemResetWarning,0823.4,5.00,000.00,021.0,020.0,000.0,029.4,022.2,17.1,0004.9,0008.36,0005.15,0004.93
2024-01-22 09:54:00,SystemResetWarning,0823.2,5.00,000.00,021.0,020.0,000.0,029.4,022.2,17.1,0004.7,0008.59,0005.24,0005.03
2024-01-22 09:55:00,SystemResetWarning,0823.3,5.00,000.00,021.0,020.0,000.0,029.4,022.3,17.0,0004.5,0009.13,0005.35,0005.11
2024-01-22 09:56:00,SystemResetWarning,0823.1,5.01,000.00,021.0,020.1,000.0,029.4,022.3,17.0,0004.4,0009.50,0005.39,0005.11
2024-01-22 09:57:00,SystemResetWarning,0823.2,5.00,000.00,021.0,020.1,000.0,029.4,022.3,17.0,0004.2,0009.39,0005.38,0005.10
2024-01-22 09:58:00,SystemResetWarning,0823.2,4.99,000.00,021.0,020.1,000.0,029.4,022.3,17.0,0004.2,0009.38,0005.36,0005.07
2024-01-22 09:59:00,SystemResetWarning,0823.2,4.98,000.00,021.0,020.1,000.0,029.4,022.3,17.0,0004.1,0009.36,0005.36,0005.06
